Regional Weather Roundup
Issued by NWS New Orleans/Baton Rouge, LA

Home | Current Version | Previous Version | Text Only | Print | Product List | Glossary On
Versions: 1 2 3 4 5 6 7 8 9 10 11 12 13 14 15 16 17 18 19 20 21 22 23 24 25 26 27 28 29 30 31 32 33 34 35 36 37 38 39 40 41 42 43 44 45 46 47 48 49 50
555
ASUS44 KLIX 020605
RWRLIX
NEW ORLEANS REGIONAL WEATHER ROUNDUP
NATIONAL WEATHER SERVICE NEW ORLEANS LA
100 AM CDT TUE SEP 02 2014

NOTE: "FAIR" INDICATES FEW OR NO CLOUDS BELOW 12,000 FEET WITH NO
      SIGNIFICANT WEATHER AND/OR OBSTRUCTIONS TO VISIBILITY.
      SKY/WX - SKY CONDITION AND SIGNIFICANT WEATHER.
      TMP - AIR TEMPERATURE.     DP    - DEWPOINT TEMPERATURE.
      RH  - RELATIVE HUMIDITY.   PRES  - PRESSURE.
      HI  - HEAT INDEX.          WCI   - WIND CHILL INDEX.

*  THESE STATIONS ARE NOT NWS OR FAA STATIONS AND ARE NOT UNDER
   NWS QUALITY CONTROL.

LAZ038-040-048-061>063-065>067-069-020700-
SOUTHEAST LOUISIANA

CITY           SKY/WX    TMP DP  RH WIND       PRES   REMARKS
N.O. AUDUBON     N/A     82  76  83 MISG        N/A
6HR MIN TEMP:  81; 6HR MAX TEMP:  84;

N.O. INTL ARPT MOCLDY    79  74  84 S6        30.01F
6HR MIN TEMP:  79; 6HR MAX TEMP:  83; 6HR PCP: TRACE;

N.O. LAKEFRONT   N/A     79  76  90 S7        30.02F
6HR MIN TEMP:  78; 6HR MAX TEMP:  81; 6HR PCP: TRACE;

N.O. DOWNTOWN*   N/A     81  73  78 S5        30.02F
6HR MIN TEMP:  81; 6HR MAX TEMP:  82;

SLIDELL          N/A     78  75  90 SE3       30.01S
6HR MIN TEMP:  77; 6HR MAX TEMP:  80;

BATON ROUGE      N/A     77  74  90 NE3       30.00S
6HR MIN TEMP:  77; 6HR MAX TEMP:  82;

BOOTHVILLE       N/A     82  78  88 SE7       30.03F
6HR MIN TEMP:  81; 6HR MAX TEMP:  84;

BELLE CHASSE     N/A     80  74  81 CALM      30.01F
6HR MIN TEMP:  79; 6HR MAX TEMP:  83;

BOGALUSA*        N/A     78  74  86 CALM      30.03S
6HR MIN TEMP:  78; 6HR MAX TEMP:  80;

GALLIANO*      NOT AVBL
NEW ROADS*       N/A     76  76  98 CALM      30.00F
6HR MIN TEMP:  76; 6HR MAX TEMP:  81;

GONZALES*        N/A     79  79 100 CALM      30.00S
6HR MIN TEMP:  79; 6HR MAX TEMP:  84;

HAMMOND*         N/A     79  75  89 CALM      30.02S
HOUMA*           N/A     77  74  88 CALM      30.01F
6HR MIN TEMP:  77; 6HR MAX TEMP:  84;

PORT FOURCHON* PTCLDY    84  77  79 S10       30.03F

$$

MSZ070-080>082-020700-
SOUTHERN MISSISSIPPI

CITY           SKY/WX    TMP DP  RH WIND       PRES   REMARKS
MCCOMB           N/A     76  74  93 S5        30.02F
6HR MIN TEMP:  76; 6HR MAX TEMP:  78; 6HR PCP:  0.01;

GULFPORT         N/A     83  75  77 S8        30.02S
6HR MIN TEMP:  80; 6HR MAX TEMP:  84; 6HR PCP: TRACE;

BILOXI         MOCLDY    84  75  74 S12       30.02F
PASCAGOULA       N/A     75  74  96 CALM      30.03S
6HR MIN TEMP:  73; 6HR MAX TEMP:  77; 6HR PCP: TRACE;


$$

COASTAL OBSERVATIONS
LAKE AND NEARSHORE STATIONS

STATION/POSITION TIME  TEMP    WIND        PRES    WAVE
                       AIR SEA DIR/SP/G            HT/PER
                 (UTC) (F)     (DEG/KT/KT) (MB)    (FT/S)
PASCAGOULA       0600   85     160/  6/ 12 1016.5
WAVELAND YACHT   0600   83     180/  8/ 13 1015.9
GRAND ISLE       0600   84 85  170/  7/ 10 1017.2
SOUTHWEST PASS   0600   85 90  170/  8/  9 1017.2
NEW CANAL        0600   79 81  180/  2/  3 1016.7
SHELL BEACH      0600   81 81  140/  5/  5 1016.4

OFFSHORE STATIONS

STATION/POSITION TIME  TEMP    WIND        PRES    WAVE
                       AIR SEA DIR/SP/G            HT/PER
                 (UTC) (F)     (DEG/KT/KT) (MB)    (FT/S)
64 S DAUPHIN ISL 0515   83 85  150/  8/ 10 1017.2

$$




USA.gov is the U.S. government's official web portal to all federal, state and local government web resources and services.